User: anonymous   Login
Location: Unspecified
(40.6208°N, 0.0000°E)
Time: 18:07:51
(UTC+00:00)
Language:

Meteor 2-5 - Orbit

View from above orbital plane
View from above orbital plane
View from above satellite
View from above satellite

Ground track
Ground track

The orbit is defined by the following mean orbital elements,

1 11605U          26088.07887507 +.00000000 +00000-0 +12519-3 0 00003
2 11605  81.2093 309.3246 0011247 137.8713 222.3323 14.07465089    01
Epoch (UTC): 29 March 2026 01:53:34
Eccentricity: 0.0011247
inclination: 81.2093°
perigee height: 860 km
apogee height: 876 km
right ascension of ascending node: 309.3246°
argument of perigee: 137.8713°
revolutions per day: 14.07465089
mean anomaly at epoch: 222.3323°

The dashed part of the orbit path shows where the satellite is in the earth's shadow,  

DLR